SXM-7 (47240 NORAD) Tracking and Keplerian Element Data
This shows tracking and keplerian element data for the satellite.
Feedback or suggestion? Click here.
Element | Value |
Catalog | 47240 |
Name | SXM-7 |
Epoch Orbit | 94 |
Epoch Day | 60.07850538 |
Epoch Year | 2021 |
RAAN | 79.5398 |
Inclination | 0.0117 |
Eccentricity | 0.0003115 |
Argument of Perigee | 342.1549 |
Mean Anonmoly | 5.1451 |
Mean Motion | 1.00271378 |
Decay Rate | 3E-08 |
L1 | 1 47240U 20096A 21060.07850538 .00000003 00000-0 00000+0 0 9991 |
L2 | 2 47240 0.0117 79.5398 0003115 342.1549 5.1451 1.00271378 945 |
Live tracking and technical data element details for SXM-7 (NORAD 47240). SXM-7 can be tracked NOW for your location showing map with azimuth and elevation plus other details from your city location.
Track the satellite on the map from your city or location and see movement details for azimuth, elevation, latitude, longitude, range, height, and movement on the map or in text.
IsCatalogInMostPopularTable: catalog: 47240, numindb: 21
Update: records affected: 1
GetName: 47240 SXM-7
Hit Count: updated at: Mon, 01 Mar 2021 22:03:40 GMT